Regional Weather Roundup
Issued by NWS

Home | Current Version | Previous Version | Text Only | Print | Product List | Glossary Off
Versions: 1 2 3 4 5 6 7 8 9 10 11 12 13 14 15 16 17 18 19 20 21 22 23 24 25 26 27 28 29 30 31 32 33 34 35 36 37 38 39 40 41 42 43 44 45 46 47 48 49 50

000
ASUS43 KIND 180500
RWRIN

WEATHER ROUNDUP FOR INDIANA
NATIONAL WEATHER SERVICE INDIANAPOLIS IN
100 AM EDT WED OCT 18 2017

NOTE: "FAIR" INDICATES FEW OR NO CLOUDS BELOW 12,000 FEET WITH NO
SIGNIFICANT WEATHER AND/OR OBSTRUCTIONS TO VISIBILITY.

* - STATION DOES NOT REPORT WEATHER SUCH AS PRECIPITATION OR FOG.

+ - STATION NOT QUALITY CONTROLLED BY THE NATIONAL WEATHER SERVICE.
    USE DATA WITH CAUTION...ESPECIALLY DEWPOINT AND RELATIVE
    HUMIDITY OBSERVATIONS.

INZ001>003-010>013-019-020-180600-
NORTHWEST INDIANA

CITY           SKY/WX    TMP DP  RH WIND       PRES   REMARKS
MONTICELLO +   CLEAR     50  39  66 S3        30.22R

$$

LMZ046-743>745-180600-
SOUTHERN LAKE MICHIGAN

STATION/POSITION TIME  TEMP    WIND        PRES    WAVE
                       AIR SEA DIR/SP/G            HT
                 (UTC) (F)     (DEG/KT/KT) (MB)    (FT)
BURNS HARBOR     0440   56     190/ 12/ 15 1022.0F
MICHIGAN CITY    0430   56     180/ 14/ 17   N/A
5NW MICH CITY    0440   58 57  200/ 14/ 19   N/A     2

$$

INZ004-005-014>016-021>024-180600-
NORTH CENTRAL INDIANA

CITY           SKY/WX    TMP DP  RH WIND       PRES   REMARKS
GOSHEN         CLEAR     51  39  63 S7        30.21S
PERU/GRISSOM   CLEAR     47  40  75 S7        30.23R
SOUTH BEND     CLEAR     50  40  68 SW6       30.21S

$$

INZ006>009-017-018-025>027-180600-
NORTHEAST INDIANA

CITY           SKY/WX    TMP DP  RH WIND       PRES   REMARKS
FORT WAYNE     PTCLDY    47  39  74 S5        30.24F
KENDALLVILLE + CLEAR     51  41  69 SW8       30.23S

$$

INZ028-029-035-036-043>045-051>053-180600-
WEST CENTRAL INDIANA

CITY           SKY/WX    TMP DP  RH WIND       PRES   REMARKS
LAFAYETTE      PTCLDY    48  41  76 CALM      30.22F
TERRE HAUTE    CLEAR     42  38  85 CALM      30.25F

$$

INZ030>032-037>040-046>048-054>057-064-065-180600-
CENTRAL INDIANA

CITY           SKY/WX    TMP DP  RH WIND       PRES   REMARKS
INDIANAPOLIS   CLEAR     47  39  74 SW6       30.25F
-EAGLE CREEK   CLEAR     47  41  80 S5        30.24F
KOKOMO +       PTCLDY    47  39  74 S6        30.24S
MT COMFORT *+  CLEAR     46  43  87 S5        30.25F
SHELBYVILLE    CLEAR     48  39  71 S7        30.25F

$$

INZ033-034-041-042-049-050-058-059-180600-
EAST CENTRAL INDIANA

CITY           SKY/WX    TMP DP  RH WIND       PRES   REMARKS
MUNCIE         CLEAR     50  39  66 S5        30.25S
RICHMOND +     CLEAR     43  39  87 SW3       30.27S

$$

INZ060-061-067>069-081>083-085>088-180600-
SOUTHWEST INDIANA

CITY           SKY/WX    TMP DP  RH WIND       PRES   REMARKS
EVANSVILLE     CLEAR     46  43  89 CALM      30.26S
HUNTINGBURG +  CLEAR     46  44  93 SE5       30.26F

$$

INZ062-063-066-070>080-084-089>092-180600-
SOUTH CENTRAL AND SOUTHEAST INDIANA

CITY           SKY/WX    TMP DP  RH WIND       PRES   REMARKS
BLOOMINGTON    CLEAR     42  38  85 CALM      30.26S
MADISON *+     CLEAR     43  41  93 CALM      30.29F
SEYMOUR +      CLEAR     43  39  87 CALM      30.27F

$$




USA.gov is the U.S. government's official web portal to all federal, state and local government web resources and services.